Urbe Airport LIRU

Flugplatz Daten

Name: Urbe Airport

Ident: LIRU

Lat: 41,95190048

Long: 12,49890041

Platzhöhe: 55 ft

IataCode:

City: Roma

Metar

2022/08/13 16:50
LIRU 131650Z 27009KT 220V290 CAVOK 28/18 Q1010

Taf

Gewünschte Webcam nicht vorhanden? Dann fügen Sie eine hinzu. Sie wird dann so schnell wie möglich freigeschaltet
Url: Title: